Spokane, WA
on Sunday, December 9, 2012

Sunday
Previous Day Next Day
Daily Summary
 ActualAverageRecord
Temperature
Mean Temperature °F 28°F  
Max Temperature 30°F 33°F 54°F (1957)
Min Temperature 17°F 23°F -8°F (1919)
Degree Days
Heating Degree Days 41 37  
Month to date heating degree days 251 326  
Since 1 July heating degree days 1636 1993  
Cooling Degree Days 0 0  
Month to date cooling degree days 0 0  
Year to date cooling degree days 535 450  
Moisture
Dew Point 24°F   
Average Humidity 89    
Maximum Humidity 100    
Minimum Humidity 77    
Precipitation
Precipitation 0.02 in 0.07 in 1.39 in (1987)
Month to date precipitation 0.88 0.74  
Year to date precipitation 19.62 15.00  
Snow
Snow 0.20 in 0.50 in 8.50 in (1948)
Month to date snowfall 0.2 3.8  
Since 1 July snowfall 6.1 11.3  
Snow Depth T in   
Wind
Wind Speed 4 mph   
Max Wind Speed 13 mph   
Max Gust Speed 17 mph   
Visibility 7 miles   
Events Snow   

Key: T is trace of precipitation, MM is missing value
Source: NWS Daily Summary
Time(PST)TemperatureDew PointHumidity Pressure Visibility Wind DirectionWind SpeedGust SpeedPrecipitationEvents Conditions
12:53 AM 21.9°F 16.0°F 78% 30.34 in 10.0 miles Calm Calm - N/A   Clear
1:53 AM 17.1°F 14.0°F 88% 30.37 in 10.0 miles West 4.6 mph - N/A   Clear
2:53 AM 19.0°F 15.1°F 85% 30.37 in 10.0 miles WSW 3.5 mph - N/A   Clear
3:53 AM 19.4°F 15.8°F 86% 30.30 in 10.0 miles Calm Calm - N/A   Clear
4:53 AM 19.9°F 16.0°F 85% 30.40 in 10.0 miles Calm Calm - N/A   Mostly Cloudy
5:53 AM 21.9°F 17.1°F 82% 30.41 in 10.0 miles Calm Calm - N/A   Overcast
6:53 AM 21.0°F 17.1°F 85% 30.43 in 10.0 miles Calm Calm - N/A   Mostly Cloudy
7:53 AM 21.9°F 19.0°F 89% 30.43 in 10.0 miles SSE 5.8 mph - N/A   Mostly Cloudy
8:53 AM 23.0°F 19.9°F 88% 30.43 in 10.0 miles SE 3.5 mph - N/A   Mostly Cloudy
9:12 AM 23.0°F 19.4°F 86% 30.32 in 10.0 miles SSE 4.6 mph - N/A   Overcast
9:53 AM 25.0°F 21.9°F 88% 30.43 in 10.0 miles SSE 4.6 mph - N/A   Overcast
10:13 AM 24.8°F 21.2°F 86% 30.33 in 10.0 miles SE 5.8 mph - N/A   Overcast
10:53 AM 27.0°F 23.0°F 85% 30.43 in 10.0 miles Calm Calm - N/A   Overcast
11:07 AM 26.6°F 23.0°F 86% 30.32 in 1.8 miles SE 3.5 mph - 0.00 in Snow Light Snow
11:53 AM 27.0°F 25.0°F 92% 30.39 in 1.5 miles SE 4.6 mph - 0.01 in Snow Light Snow
12:04 PM 26.6°F 24.8°F 93% 30.29 in 4.0 miles SE 6.9 mph - 0.00 in Snow Light Snow
12:45 PM 28.4°F 26.6°F 93% 30.28 in 2.0 miles South 4.6 mph - 0.00 in Snow Light Snow
12:53 PM 28.9°F 27.0°F 92% 30.37 in 2.0 miles South 5.8 mph - 0.01 in Snow Light Snow
12:58 PM 28.4°F 26.6°F 93% 30.28 in 4.0 miles South 5.8 mph - 0.00 in Snow Light Snow
1:53 PM 30.0°F 27.0°F 88% 30.35 in 3.0 miles SSW 9.2 mph - 0.00 in Snow Light Snow
2:29 PM 30.2°F 26.6°F 86% 30.25 in 10.0 miles SW 11.5 mph - 0.00 in   Overcast
2:53 PM 30.0°F 26.1°F 85% 30.34 in 9.0 miles SSW 10.4 mph - 0.00 in Snow Light Snow
3:26 PM 30.2°F 26.6°F 86% 30.25 in 10.0 miles SSW 9.2 mph - 0.00 in   Overcast
3:53 PM 30.0°F 27.0°F 88% 30.32 in 10.0 miles South 6.9 mph - 0.00 in   Overcast
4:53 PM 30.0°F 27.0°F 88% 30.29 in 10.0 miles South 8.1 mph - N/A   Overcast
5:39 PM 30.2°F 26.6°F 86% 30.21 in 10.0 miles South 5.8 mph - N/A   Overcast
5:53 PM 30.0°F 28.0°F 92% 30.28 in 1.5 miles South 5.8 mph - 0.00 in Snow Light Snow
6:53 PM 28.9°F 28.0°F 96% 30.28 in 1.5 miles South 5.8 mph - 0.00 in Snow Light Snow
7:49 PM 28.4°F 28.4°F 100% 30.16 in 8.0 miles SSE 5.8 mph - 0.00 in   Overcast
7:53 PM 28.9°F 28.0°F 96% 30.25 in 9.0 miles SSE 6.9 mph - 0.00 in   Overcast
8:53 PM 28.9°F 27.0°F 92% 30.23 in 10.0 miles SSE 4.6 mph - N/A   Overcast
9:53 PM 28.9°F 28.0°F 96% 30.25 in 6.0 miles Calm Calm - N/A   Overcast
10:07 PM 28.4°F 28.4°F 100% 30.17 in 5.0 miles SE 3.5 mph - 0.00 in   Light Freezing Drizzle
10:53 PM 28.9°F 28.9°F 100% 30.24 in 2.0 miles Calm Calm - 0.00 in   Light Freezing Drizzle
11:53 PM 30.0°F 28.9°F 96% 30.22 in 1.0 miles Calm Calm - 0.00 in   Light Freezing Drizzle
Moon Phase
Dec. 09 Dec. 13 Dec. 20 Dec. 28 Jan. 04
Sunrise:07:26 AM (PST) Moon Rise:02:52 AM (PST)12/9
Sunset:03:58 PM (PST) Moon Set:01:19 PM (PST)12/9

Copyright © 2014 The Weather Underground, Inc.